Location: Brad
(46.1333°N, 22.7833°E)
Time: 10:10:49
(UTC+00:00)

Cosmos 1844 Rocket - Pass Details

Date: 03 February 2023
Orbit: 825 x 843 km, 71.0° (Epoch: 31 March)

Event Time Altitude Azimuth Distance (km) Brightness Sun altitude
Rises 17:42:42 0° 328° (NNW) 3,374 6.3 -22.1°
Reaches altitude 10° 17:45:14 10° 322° (NW) 2,435 5.6 -22.5°
Maximum altitude 17:50:28 43° 252° (WSW) 1,141 3.8 -23.4°
Drops below altitude 10° 17:55:41 10° 182° (S) 2,421 5.1 -24.3°
Sets 17:58:12 0° 176° (S) 3,351 5.8 -24.8°
